[[{"header":{"parameterUnit":"m.s-1","parameterCategory":1,"la1":30.2991,"la2":30.254,"lo1":-89.0895,"lo2":-89.0444,"dy":0.0017,"dx":0.0017,"nx":28,"ny":28,"refTime":"2025-08-17T21:00:00:Z","depth":0,"parameterNumber":2,"parameterNumberName":"U-component_of_WINDS"},"data":[0,0,0,0,0,0,0,0,0,0,0,0,0,0,0,0,0,0,0,0,0,0,0,0,0,0,0,0,0,0,0,0,0,0,0,0,0,0,0,0,0,0,0,0,0,0,0,0,0,0,0,0,0,0,0,0,0,0,-0.8529,-0.8528,0,-0.8464,-0.8464,-0.8463,-0.8448,-0.8448,-0.8448,-0.8449,-0.8382,-0.8379,-0.8377,0,0,0,0,0,0,0,0,0,0,0,0,0,-0.8637,-0.8635,-0.8529,-0.8528,-0.8527,-0.8465,-0.8464,-0.8463,-0.8447,-0.8448,-0.8449,-0.8449,-0.8382,-0.838,-0.8377,0,0,0,0,0,0,0,0,0,0,0,0,0,-0.8583,-0.8635,-0.8529,-0.8512,-0.851,-0.8465,-0.8464,-0.8463,-0.8447,-0.8448,-0.8449,-0.8449,-0.8383,-0.838,-0.8377,-0.8343,0,0,-0.8367,-0.8365,0,0,0,0,0,0,0,0,-0.8586,-0.8579,-0.8515,-0.8513,-0.8511,-0.8465,-0.8477,-0.8423,-0.8447,-0.8471,-0.8449,-0.845,-0.8409,-0.8403,-0.839,-0.834,-0.8337,-0.8366,-0.8364,-0.8363,-0.8362,0,0,0,0,0,0,0,-0.859,-0.8582,-0.8503,-0.8514,-0.8511,-0.8507,-0.85,-0.8467,-0.8437,-0.8469,-0.8468,-0.846,-0.8407,-0.8393,-0.8388,-0.8336,-0.8366,-0.8363,-0.8361,-0.836,-0.8257,-0.8256,0,0,0,0,0,0,-0.8597,-0.8585,-0.8505,-0.8501,-0.8551,-0.8505,-0.8497,-0.8479,-0.8437,-0.8432,-0.846,-0.846,-0.8398,-0.8392,-0.8386,-0.8344,-0.8363,-0.836,-0.8358,-0.8258,-0.8257,-0.8256,0,0,0,0,0,0,-0.8599,-0.859,-0.8508,-0.8543,-0.8532,-0.8502,-0.8482,-0.8477,-0.8463,-0.843,-0.8425,-0.8451,-0.8398,-0.839,-0.8354,-0.8342,-0.8358,-0.8355,-0.8258,-0.8257,-0.8256,-0.8261,0,0,0,0,0,0,-0.8602,-0.8591,-0.8578,-0.8543,-0.853,-0.8478,-0.8481,-0.8475,-0.8457,-0.8457,-0.842,-0.8415,-0.8398,-0.8359,-0.8351,-0.8337,-0.8353,-0.8259,-0.8258,-0.8257,-0.8262,-0.826,-0.8258,0,0,0,0,0,-0.8606,-0.8581,-0.8577,-0.8568,-0.8514,-0.8477,-0.847,-0.8452,-0.8456,-0.8443,-0.8422,-0.8416,-0.8344,-0.8356,-0.8346,-0.8331,-0.826,-0.8258,-0.8257,-0.8262,-0.826,-0.8258,0,0,0,0,0,0,-0.8615,-0.8576,-0.8572,-0.8535,-0.8509,-0.8475,-0.8457,-0.845,-0.8423,-0.8423,-0.8402,-0.8394,-0.8359,-0.8342,-0.8355,-0.8297,-0.8302,-0.8299,-0.831,-0.8308,-0.8306,-0.8311,-0.835,0,0,0,0,0,-0.8613,-0.8587,-0.8554,-0.8525,-0.8513,-0.8487,-0.8471,-0.8459,-0.8432,-0.8421,-0.8397,-0.8371,-0.8342,-0.8324,-0.8296,-0.8259,-0.8251,-0.8244,-0.8243,-0.8242,-0.8239,-0.8218,-0.8215,-0.825,-0.825,-0.825,0,0,-0.8608,-0.8584,-0.8568,-0.8526,-0.8505,-0.8478,-0.8478,-0.845,-0.843,-0.8416,-0.8381,-0.8363,-0.8332,-0.8296,-0.8278,-0.828,-0.8227,-0.8239,-0.8239,-0.8236,-0.8216,-0.8213,-0.821,-0.8249,-0.8249,-0.8249,0,0,-0.8585,-0.8564,-0.8537,-0.8517,-0.8485,-0.8469,-0.8462,-0.8429,-0.8417,-0.8381,-0.8371,-0.8346,-0.8298,-0.8276,-0.8259,-0.8229,-0.8222,-0.822,-0.8212,-0.8192,-0.8189,-0.8187,-0.8176,-0.8172,-0.8217,-0.8217,-0.8217,0,-0.8583,-0.8542,-0.8524,-0.8497,-0.8478,-0.8466,-0.8439,-0.8419,-0.838,-0.8368,-0.837,-0.8309,-0.8288,-0.8246,-0.8239,-0.8225,-0.8217,-0.8224,-0.8191,-0.8188,-0.8186,-0.8175,-0.8171,-0.8217,-0.8217,-0.8217,-0.8217,0,-0.8541,-0.8513,-0.8495,-0.8458,-0.8438,-0.8411,-0.8389,-0.837,-0.8361,-0.8344,-0.8308,-0.8282,-0.8248,-0.8238,-0.8228,-0.8195,-0.8197,-0.8196,-0.82,-0.8183,-0.8173,-0.8168,-0.8217,-0.8217,-0.8217,-0.8217,0,0,-0.8521,-0.8476,-0.8469,-0.8453,-0.8418,-0.8395,-0.8368,-0.8336,-0.832,-0.8294,-0.827,-0.823,-0.8229,-0.8209,-0.8197,-0.8179,-0.8157,-0.818,-0.8179,-0.8177,-0.812,-0.8121,-0.8117,-0.8153,-0.8152,-0.8151,-0.8122,0,-0.8494,-0.8444,-0.8427,-0.8386,-0.836,-0.8348,-0.8324,-0.83,-0.8284,-0.8259,-0.8241,-0.8213,-0.8213,-0.8202,-0.8184,-0.8164,-0.8146,-0.8166,-0.813,-0.8129,-0.8138,-0.8111,-0.8112,-0.8086,-0.8118,-0.8118,-0.8117,0,-0.8455,-0.8429,-0.8385,-0.8354,-0.8342,-0.8321,-0.829,-0.8267,-0.824,-0.8229,-0.8208,-0.8197,-0.8167,-0.8174,-0.8133,-0.8147,-0.8132,-0.812,-0.8118,-0.8114,-0.8122,-0.8106,-0.8077,-0.8073,-0.8111,-0.8111,-0.8112,0,-0.8445,-0.8399,-0.8367,-0.8353,-0.8316,-0.8301,-0.8284,-0.8258,-0.824,-0.8213,-0.8201,-0.8171,-0.8155,-0.8132,-0.8113,-0.812,-0.8074,-0.8079,-0.8064,-0.8065,-0.8055,-0.8056,-0.8023,-0.8045,-0.8045,-0.8045,-0.8045,0,-0.8416,-0.839,-0.8362,-0.8342,-0.8312,-0.8294,-0.8265,-0.8248,-0.8224,-0.8201,-0.8188,-0.8167,-0.8144,-0.8119,-0.8104,-0.8072,-0.8065,-0.8056,-0.8052,-0.8057,-0.8058,-0.8046,-0.8047,-0.8044,-0.8044,-0.8045,-0.8045,0,-0.8399,-0.838,-0.8344,-0.8312,-0.8304,-0.8283,-0.8255,-0.8236,-0.822,-0.819,-0.8182,-0.8156,-0.8127,-0.8106,-0.8067,-0.8058,-0.8024,-0.802,-0.8033,-0.8031,-0.8018,-0.8019,-0.7976,-0.7969,-0.7996,-0.7996,-0.7996,0,-0.8382,-0.8362,-0.8328,-0.8312,-0.8296,-0.827,-0.8252,-0.8233,-0.8214,-0.8182,-0.8166,-0.8136,-0.811,-0.8063,-0.8041,-0.8012,-0.8008,-0.7994,-0.8003,-0.8009,-0.8007,-0.8009,-0.8007,-0.7993,-0.7993,-0.7993,-0.7993,0,-0.8354,-0.8345,-0.832,-0.8291,-0.827,-0.8247,-0.8223,-0.821,-0.8187,-0.8167,-0.8137,-0.8117,-0.8079,-0.8049,-0.8018,-0.8,-0.7993,-0.799,-0.7985,-0.799,-0.7998,-0.7993,-0.8029,-0.7991,-0.7991,-0.7991,-0.7991,-0.7992,-0.8336,-0.8318,-0.8291,-0.8264,-0.8244,-0.8222,-0.8202,-0.8184,-0.8159,-0.8126,-0.8117,-0.8085,-0.8059,-0.8016,-0.7999,-0.7974,-0.7975,-0.7967,-0.7966,-0.7964,-0.7964,-0.8002,-0.7968,-0.7968,-0.7968,-0.7968,-0.7968,0,-0.8307,-0.829,-0.8265,-0.8232,-0.8211,-0.8206,-0.8179,-0.8161,-0.8134,-0.811,-0.8086,-0.8052,-0.8023,-0.7999,-0.7969,-0.7954,-0.7949,-0.7946,-0.7947,-0.7944,-0.7965,-0.7972,-0.795,-0.795,-0.795,-0.795,-0.795,-0.795,-0.829,-0.8258,-0.8247,-0.8206,-0.8188,-0.8158,-0.8144,-0.8124,-0.8104,-0.8067,-0.8043,-0.8028,-0.8004,-0.7972,-0.7945,-0.7939,-0.7929,-0.7927,-0.7919,-0.794,-0.7942,-0.7944,-0.7951,-0.7924,-0.7924,-0.79,-0.79,-0.7899]},{"header":{"parameterUnit":"m.s-1","parameterCategory":1,"la1":30.2991,"la2":30.254,"lo1":-89.0895,"lo2":-89.0444,"dy":0.0017,"dx":0.0017,"nx":28,"ny":28,"refTime":"2025-08-17T21:00:00:Z","depth":0,"parameterNumber":3,"parameterNumberName":"V-component_of_WINDS"},"data":[0,0,0,0,0,0,0,0,0,0,0,0,0,0,0,0,0,0,0,0,0,0,0,0,0,0,0,0,0,0,0,0,0,0,0,0,0,0,0,0,0,0,0,0,0,0,0,0,0,0,0,0,0,0,0,0,0,0,0.3867,0.3867,0,0.3887,0.3887,0.3887,0.3853,0.3852,0.385,0.3849,0.387,0.3872,0.3873,0,0,0,0,0,0,0,0,0,0,0,0,0,0.3798,0.38,0.3867,0.3867,0.3867,0.3887,0.3887,0.3887,0.3853,0.3851,0.385,0.3849,0.3869,0.3871,0.3873,0,0,0,0,0,0,0,0,0,0,0,0,0,0.3824,0.38,0.3867,0.3853,0.3851,0.3887,0.3887,0.3887,0.3853,0.3851,0.385,0.3848,0.3869,0.3871,0.3874,0.3924,0,0,0.3881,0.3882,0,0,0,0,0,0,0,0,0.3823,0.3827,0.3854,0.3854,0.3852,0.3865,0.387,0.3899,0.3854,0.3853,0.3849,0.3847,0.387,0.3872,0.388,0.3925,0.3926,0.3881,0.3883,0.3884,0.3885,0,0,0,0,0,0,0,0.3821,0.3826,0.3875,0.3855,0.3854,0.3845,0.3847,0.3876,0.3871,0.3853,0.385,0.3853,0.3869,0.3877,0.388,0.3926,0.3881,0.3883,0.3885,0.3886,0.4009,0.4011,0,0,0,0,0,0,0.3821,0.3824,0.3874,0.3875,0.3833,0.3847,0.3849,0.3863,0.387,0.387,0.3854,0.3851,0.3874,0.3877,0.3881,0.3937,0.3884,0.3886,0.3888,0.4007,0.401,0.4012,0,0,0,0,0,0,0.382,0.3826,0.3873,0.3849,0.3855,0.385,0.3866,0.3864,0.3873,0.3872,0.3871,0.3864,0.3873,0.3877,0.3912,0.3937,0.3887,0.389,0.4005,0.4008,0.4011,0.4051,0,0,0,0,0,0,0.3818,0.3826,0.3845,0.385,0.3856,0.3905,0.3868,0.3866,0.3877,0.3873,0.388,0.388,0.3872,0.3909,0.3915,0.3939,0.3891,0.4003,0.4007,0.401,0.4048,0.4055,0.4061,0,0,0,0,0,0.3816,0.3857,0.3846,0.3852,0.388,0.3907,0.391,0.39,0.3879,0.3898,0.3897,0.388,0.3934,0.3913,0.3919,0.3945,0.4001,0.4006,0.4009,0.4044,0.4053,0.4061,0,0,0,0,0,0,0.3856,0.3857,0.3845,0.3889,0.3898,0.3901,0.3924,0.391,0.3925,0.3921,0.3908,0.391,0.3947,0.395,0.3926,0.3992,0.3964,0.397,0.3988,0.3997,0.4004,0.4001,0.3893,0,0,0,0,0,0.3869,0.3891,0.3891,0.393,0.3935,0.3929,0.394,0.3931,0.394,0.3944,0.3945,0.3954,0.3973,0.3986,0.4003,0.4049,0.4048,0.4069,0.4076,0.4082,0.4086,0.4107,0.4115,0.4025,0.4025,0.4025,0,0,0.3898,0.3902,0.3916,0.3938,0.3943,0.3965,0.3932,0.3958,0.3973,0.3948,0.398,0.3981,0.399,0.403,0.4048,0.4034,0.4111,0.4087,0.4091,0.4092,0.4112,0.412,0.4128,0.4028,0.4027,0.4027,0,0,0.3961,0.3967,0.3998,0.4004,0.4013,0.4008,0.4016,0.402,0.402,0.4052,0.4033,0.4051,0.4085,0.4091,0.4098,0.4161,0.4145,0.4168,0.4202,0.4223,0.423,0.4236,0.4256,0.4263,0.4172,0.4172,0.4172,0,0.3996,0.4028,0.4016,0.4041,0.405,0.4028,0.4058,0.4065,0.4079,0.4085,0.4069,0.4108,0.4113,0.4152,0.4167,0.4176,0.4182,0.4166,0.423,0.4236,0.4242,0.426,0.4268,0.4175,0.4175,0.4174,0.4174,0,0.4068,0.4091,0.4115,0.4127,0.4139,0.4167,0.4159,0.4172,0.4162,0.4159,0.4191,0.4196,0.4212,0.4221,0.4213,0.4259,0.4249,0.4232,0.4203,0.4253,0.427,0.4277,0.4178,0.4177,0.4177,0.4176,0,0,0.4157,0.4161,0.417,0.4173,0.4181,0.4197,0.4224,0.4239,0.4249,0.426,0.428,0.4308,0.4291,0.43,0.4291,0.431,0.4355,0.429,0.429,0.4299,0.4403,0.4413,0.4422,0.4345,0.4347,0.4348,0.4401,0,0.4217,0.4261,0.425,0.4293,0.4312,0.429,0.4312,0.4319,0.4316,0.4332,0.4329,0.4348,0.4326,0.4331,0.4348,0.4346,0.4375,0.4343,0.4362,0.4363,0.4357,0.4431,0.4443,0.4493,0.4408,0.4409,0.441,0,0.4292,0.4303,0.4348,0.4349,0.4357,0.4377,0.4388,0.4404,0.441,0.4407,0.4415,0.4403,0.4427,0.44,0.4432,0.441,0.4418,0.4418,0.4419,0.4419,0.4387,0.4429,0.4509,0.4515,0.4421,0.442,0.4419,0,0.4348,0.4375,0.4404,0.4409,0.4411,0.4425,0.4427,0.4432,0.4441,0.4451,0.4456,0.447,0.4477,0.4488,0.4479,0.446,0.4511,0.4484,0.4508,0.4508,0.4518,0.4517,0.4596,0.4528,0.4527,0.4527,0.4527,0,0.4414,0.4442,0.4428,0.4446,0.4476,0.4463,0.4492,0.4492,0.4496,0.4512,0.4495,0.4511,0.4499,0.4514,0.4507,0.4533,0.4538,0.4534,0.4532,0.4534,0.4534,0.4537,0.4532,0.4529,0.4529,0.4528,0.4528,0,0.4481,0.4473,0.4503,0.4503,0.4503,0.4524,0.4524,0.454,0.4536,0.4557,0.4561,0.4555,0.4571,0.4563,0.4581,0.4576,0.4608,0.4603,0.4606,0.4603,0.4626,0.4623,0.4708,0.4718,0.4646,0.4646,0.4647,0,0.4522,0.4542,0.4543,0.4552,0.4555,0.4571,0.4579,0.4567,0.4577,0.4584,0.4598,0.4613,0.4623,0.465,0.4647,0.4659,0.4652,0.4681,0.4654,0.4654,0.4648,0.4646,0.4647,0.4685,0.4686,0.4687,0.4688,0,0.4595,0.459,0.4602,0.4613,0.4623,0.4631,0.4637,0.4646,0.4634,0.4646,0.4661,0.4669,0.4686,0.4699,0.471,0.4712,0.4697,0.4696,0.4702,0.4703,0.4703,0.47,0.4618,0.4694,0.4693,0.4693,0.4693,0.4692,0.4648,0.4663,0.4666,0.4679,0.4683,0.4689,0.4702,0.4699,0.4712,0.4724,0.4716,0.4734,0.4737,0.475,0.4753,0.4766,0.4754,0.4764,0.4765,0.4767,0.4768,0.4703,0.4768,0.4768,0.4768,0.4768,0.4768,0,0.4717,0.4717,0.473,0.4738,0.4749,0.4734,0.474,0.4749,0.4765,0.4769,0.4779,0.4796,0.4809,0.4806,0.4817,0.4828,0.4821,0.4831,0.4829,0.4829,0.478,0.4772,0.4836,0.4836,0.4836,0.4836,0.4836,0.4836,0.4754,0.4779,0.4773,0.4799,0.4798,0.4814,0.4819,0.4824,0.4826,0.4845,0.4855,0.4853,0.4854,0.4865,0.4876,0.4875,0.4878,0.489,0.4886,0.484,0.4833,0.4826,0.4819,0.4891,0.4891,0.4933,0.4934,0.4934]}]]